MEA225 LTAI-OLBA

Flight info

Callsign MEA225
Flight time 0h 54m
Altitude 33000
Route KULOL UN135 VESAR L620 BALMA
Aircraft A20N/M-SDE2E3FGHIRWXY/LB1

Departure

Time 2026-05-04 16:48
Airport Antalya International Airport (LTAI)

Arrival

Time 2026-05-04 17:42
Airport Beirut Rafic Hariri International Airport (OLBA)
Time Latitude Longitude Altitude Speed Heading
2026-05-04 16:17 36.89779 30.80009 171 ft 0 kts 94°
2026-05-04 16:31 36.89781 30.79986 181 ft 2 kts 94°
2026-05-04 16:31 36.89782 30.79961 181 ft 0 kts 94°
2026-05-04 16:32 36.89788 30.79921 181 ft 2 kts 135°
2026-05-04 16:33 36.89796 30.79913 181 ft 0 kts 174°
2026-05-04 16:35 36.89767 30.79911 181 ft 0 kts 184°
2026-05-04 16:36 36.89766 30.79911 181 ft 0 kts 184°
2026-05-04 16:37 36.89735 30.79907 181 ft 0 kts 186°
2026-05-04 16:37 36.89714 30.79904 181 ft 6 kts 186°
2026-05-04 16:37 36.89619 30.79986 180 ft 14 kts 96°
2026-05-04 16:38 36.89601 30.80204 179 ft 0 kts 98°
2026-05-04 16:39 36.89585 30.80384 178 ft 16 kts 94°
2026-05-04 16:39 36.89572 30.80532 177 ft 14 kts 97°
2026-05-04 16:40 36.89461 30.80671 175 ft 16 kts 186°
2026-05-04 16:40 36.89203 30.80636 174 ft 16 kts 187°
2026-05-04 16:41 36.88995 30.80609 174 ft 11 kts 186°
2026-05-04 16:41 36.88738 30.80571 173 ft 17 kts 187°
2026-05-04 16:42 36.88373 30.80520 171 ft 7 kts 186°
2026-05-04 16:43 36.88203 30.80496 169 ft 18 kts 187°
2026-05-04 16:43 36.88125 30.80528 168 ft 0 kts 123°
2026-05-04 16:44 36.88113 30.80589 168 ft 3 kts 97°
2026-05-04 16:45 36.88110 30.80611 167 ft 5 kts 96°
2026-05-04 16:46 36.88167 30.80731 168 ft 0 kts
2026-05-04 16:47 36.88169 30.80731 168 ft 2 kts
2026-05-04 16:48 36.89916 30.80996 660 ft 134 kts 359°
2026-05-04 16:48 36.90857 30.81118 1485 ft 141 kts
2026-05-04 16:49 36.92917 30.81807 2621 ft 170 kts 21°
2026-05-04 16:49 36.95321 30.83132 3814 ft 210 kts 24°
2026-05-04 16:50 36.98038 30.84894 5860 ft 226 kts 48°
2026-05-04 16:50 36.98767 30.88661 7931 ft 240 kts 97°
2026-05-04 16:51 36.98285 30.93180 9398 ft 283 kts 99°
2026-05-04 16:51 36.98033 30.95661 10364 ft 294 kts 99°
2026-05-04 16:51 36.97541 31.01169 11453 ft 341 kts 99°
2026-05-04 16:52 36.95384 31.06384 13322 ft 347 kts 141°
2026-05-04 16:52 36.93345 31.07909 14195 ft 349 kts 162°
2026-05-04 16:53 36.88515 31.08148 15916 ft 355 kts 188°
2026-05-04 16:53 36.80947 31.07135 18385 ft 376 kts 177°
2026-05-04 16:54 36.78386 31.07879 19137 ft 383 kts 159°
2026-05-04 16:55 36.72606 31.18702 22037 ft 410 kts 95°
2026-05-04 16:55 36.72057 31.25865 23449 ft 420 kts 100°
2026-05-04 16:56 36.70857 31.32687 24598 ft 425 kts 107°
2026-05-04 16:56 36.68437 31.43441 26214 ft 438 kts 108°
2026-05-04 16:57 36.67595 31.47113 26706 ft 443 kts 109°
2026-05-04 16:57 36.65886 31.54584 27684 ft 452 kts 109°
2026-05-04 16:58 36.63262 31.66048 29048 ft 465 kts 110°
2026-05-04 16:58 36.62368 31.69938 29476 ft 469 kts 110°
2026-05-04 16:59 36.60555 31.77810 30266 ft 477 kts 110°
2026-05-04 17:00 36.56835 31.93884 31865 ft 487 kts 110°
2026-05-04 17:00 36.54007 32.05994 32825 ft 487 kts 112°
2026-05-04 17:01 36.51636 32.13836 32839 ft 484 kts 116°
2026-05-04 17:02 36.46800 32.29429 32850 ft 483 kts 116°
2026-05-04 17:02 36.44335 32.37318 32854 ft 499 kts 116°
2026-05-04 17:03 36.43071 32.41359 32858 ft 501 kts 116°
2026-05-04 17:03 36.39305 32.53390 32851 ft 500 kts 116°
2026-05-04 17:04 36.34231 32.69503 32855 ft 501 kts 116°
2026-05-04 17:05 36.29138 32.85585 32848 ft 501 kts 117°
2026-05-04 17:06 36.25326 32.97567 32841 ft 500 kts 117°
2026-05-04 17:07 36.21900 33.08282 32840 ft 501 kts 117°
2026-05-04 17:07 36.18917 33.17592 32835 ft 501 kts 117°
2026-05-04 17:08 36.15042 33.29641 32837 ft 502 kts 117°
2026-05-04 17:09 36.12451 33.37665 32830 ft 502 kts 117°
2026-05-04 17:09 36.09849 33.45704 32829 ft 503 kts 118°
2026-05-04 17:10 36.03343 33.65710 32830 ft 503 kts 118°
2026-05-04 17:11 36.00719 33.73740 32834 ft 503 kts 118°
2026-05-04 17:12 35.96776 33.85764 32833 ft 503 kts 118°
2026-05-04 17:13 35.88303 34.03932 32837 ft 472 kts 150°
2026-05-04 17:14 35.77205 34.12163 32844 ft 465 kts 157°
2026-05-04 17:15 35.68881 34.18257 32849 ft 466 kts 157°
2026-05-04 17:16 35.61246 34.23843 32775 ft 464 kts 157°
2026-05-04 17:16 35.53035 34.29841 30978 ft 454 kts 157°
2026-05-04 17:17 35.50329 34.31811 30227 ft 451 kts 158°
2026-05-04 17:17 35.42466 34.37534 29055 ft 437 kts 158°
2026-05-04 17:18 35.39841 34.39432 28772 ft 437 kts 158°
2026-05-04 17:18 35.34640 34.43204 28219 ft 431 kts 158°
2026-05-04 17:19 35.29509 34.46920 27686 ft 429 kts 158°
2026-05-04 17:19 35.24381 34.50628 27156 ft 426 kts 158°
2026-05-04 17:20 35.19284 34.54307 26269 ft 424 kts 158°
2026-05-04 17:20 35.14264 34.57932 25151 ft 413 kts 158°
2026-05-04 17:20 35.11809 34.59703 24594 ft 407 kts 158°
2026-05-04 17:21 35.07020 34.63150 23510 ft 397 kts 158°
2026-05-04 17:21 35.02328 34.66522 22413 ft 384 kts 158°
2026-05-04 17:22 35.00046 34.68161 21889 ft 378 kts 158°
2026-05-04 17:22 34.97788 34.69781 21372 ft 373 kts 158°
2026-05-04 17:23 34.91201 34.74495 19852 ft 359 kts 158°
2026-05-04 17:23 34.89055 34.76029 19358 ft 356 kts 158°
2026-05-04 17:23 34.84504 34.79248 18393 ft 392 kts 157°
2026-05-04 17:24 34.82172 34.80913 17783 ft 395 kts 156°
2026-05-04 17:24 34.75197 34.85916 16057 ft 376 kts 156°
2026-05-04 17:25 34.72965 34.87511 15533 ft 368 kts 156°
2026-05-04 17:25 34.68613 34.90608 14518 ft 355 kts 157°
2026-05-04 17:26 34.64426 34.93582 13508 ft 345 kts 156°
2026-05-04 17:26 34.58361 34.97886 12072 ft 327 kts 156°
2026-05-04 17:27 34.54486 35.00631 11162 ft 317 kts 156°
2026-05-04 17:27 34.50747 35.03278 10317 ft 308 kts 156°
2026-05-04 17:28 34.47302 35.06018 9888 ft 293 kts 146°
2026-05-04 17:29 34.42798 35.10858 9364 ft 287 kts 146°
2026-05-04 17:29 34.38363 35.15598 8418 ft 278 kts 146°
2026-05-04 17:30 34.34114 35.20128 7435 ft 267 kts 145°
2026-05-04 17:31 34.31365 35.23056 6797 ft 260 kts 145°
2026-05-04 17:31 34.27773 35.26875 5958 ft 256 kts 145°
2026-05-04 17:32 34.24963 35.29836 5338 ft 295 kts 144°
2026-05-04 17:33 34.20471 35.34623 4791 ft 277 kts 144°
2026-05-04 17:33 34.19060 35.36127 4664 ft 264 kts 144°
2026-05-04 17:34 34.14933 35.39205 4296 ft 209 kts 170°
2026-05-04 17:34 34.13569 35.39628 4216 ft 196 kts 174°
2026-05-04 17:35 34.09836 35.40668 3974 ft 182 kts 174°
2026-05-04 17:35 34.07370 35.41359 3971 ft 181 kts 174°
2026-05-04 17:35 34.06147 35.41702 3975 ft 177 kts 173°
2026-05-04 17:36 34.05001 35.42029 3985 ft 168 kts 174°
2026-05-04 17:36 34.03836 35.42347 3960 ft 172 kts 174°
2026-05-04 17:36 34.02672 35.42676 3819 ft 171 kts 174°
2026-05-04 17:36 34.01534 35.42996 3595 ft 165 kts 174°
2026-05-04 17:37 34.00434 35.43304 3384 ft 160 kts 174°
2026-05-04 17:37 33.99370 35.43603 3173 ft 154 kts 174°
2026-05-04 17:37 33.98341 35.43890 2967 ft 148 kts 174°
2026-05-04 17:37 33.97379 35.44161 2778 ft 136 kts 175°
2026-05-04 17:38 33.96491 35.44409 2611 ft 128 kts 175°
2026-05-04 17:38 33.95631 35.44648 2435 ft 125 kts 176°
2026-05-04 17:38 33.94790 35.44881 2266 ft 126 kts 175°
2026-05-04 17:38 33.93940 35.45120 2093 ft 121 kts 175°
2026-05-04 17:39 33.92338 35.45566 1783 ft 120 kts 174°
2026-05-04 17:39 33.91526 35.45792 1618 ft 121 kts 174°
2026-05-04 17:39 33.90710 35.46022 1449 ft 119 kts 173°
2026-05-04 17:40 33.89922 35.46242 1286 ft 114 kts 173°
2026-05-04 17:40 33.89161 35.46453 1114 ft 112 kts 171°
2026-05-04 17:40 33.88400 35.46680 950 ft 114 kts 172°
2026-05-04 17:40 33.87609 35.46896 819 ft 117 kts 172°
2026-05-04 17:41 33.86801 35.47120 658 ft 123 kts 171°
2026-05-04 17:41 33.85980 35.47361 500 ft 121 kts 171°
2026-05-04 17:41 33.85169 35.47583 376 ft 120 kts 172°
2026-05-04 17:41 33.84363 35.47805 206 ft 119 kts 173°
2026-05-04 17:42 33.83568 35.48018 73 ft 113 kts 173°
2026-05-04 17:42 33.82932 35.48185 60 ft 66 kts 167°
2026-05-04 17:42 33.82654 35.48266 62 ft 28 kts 163°
2026-05-04 17:42 33.82498 35.48346 65 ft 23 kts 149°
2026-05-04 17:43 33.82372 35.48475 64 ft 25 kts 137°
2026-05-04 17:43 33.82263 35.48600 65 ft 17 kts 134°
2026-05-04 17:43 33.82239 35.48667 63 ft 11 kts 100°
2026-05-04 17:43 33.82242 35.48787 55 ft 15 kts 85°
2026-05-04 17:44 33.82247 35.48911 59 ft 7 kts 88°
2026-05-04 17:44 33.82250 35.48974 61 ft 9 kts 86°
2026-05-04 17:44 33.82242 35.49062 63 ft 13 kts 102°
2026-05-04 17:44 33.82225 35.49144 61 ft 11 kts 104°
2026-05-04 17:45 33.82255 35.49231 62 ft 14 kts 19°
2026-05-04 17:45 33.82324 35.49251 62 ft 10 kts 14°
2026-05-04 17:45 33.82393 35.49272 61 ft 7 kts 15°
2026-05-04 17:45 33.82433 35.49266 63 ft 6 kts 308°
2026-05-04 17:46 33.82440 35.49235 62 ft 2 kts 283°
2026-05-04 17:46 33.82444 35.49217 62 ft 0 kts 283°